Regional Weather Roundup
Issued by NWS

Home | Current Version | Previous Version | Graphics & Text | Print | Product List | Glossary On
Versions: 1 2 3 4 5 6 7 8 9 10 11 12 13 14 15 16 17 18 19 20 21 22 23 24 25 26 27 28 29 30 31 32 33 34 35 36 37 38 39 40 41 42 43 44 45 46 47 48 49 50
000
ASUS43 KLOT 250608
RWRIL

ILLINOIS REGIONAL WEATHER ROUNDUP
NATIONAL WEATHER SERVICE CHICAGO/ROMEOVILLE IL
100 AM CDT SAT MAR 25 2017

NOTE: "FAIR" INDICATES FEW OR NO CLOUDS BELOW 12,000 FEET WITH NO
SIGNIFICANT WEATHER AND/OR OBSTRUCTIONS TO VISIBILITY.

* THESE STATIONS ARE NOT UNDER NWS QUALITY CONTROL. THEY ALSO MAY NOT
  REPORT WEATHER SUCH AS PRECIPITATION OR FOG.

ILZ001-002-007-009-015-016-024-250700-
NORTHWEST ILLINOIS

CITY           SKY/WX    TMP DP  RH WIND       PRES   REMARKS
MOLINE         CLOUDY    48  45  89 E17       29.99R
6HR MIN TEMP:  48; 6HR MAX TEMP:  59; 6HR PCP:  0.18;

STERLING*      CLOUDY    42  40  92 E16       30.03F
SAVANNA*       CLOUDY    42  40  89 NE16      30.03F
$$

ILZ003-004-008-010-011-017-018-250700-
NORTH CENTRAL ILLINOIS

CITY           SKY/WX    TMP DP  RH WIND       PRES   REMARKS
ROCKFORD       CLOUDY    41  37  86 NE14      30.09R
6HR MIN TEMP:  41; 6HR MAX TEMP:  59; 6HR PCP:  0.08;

FREEPORT*      DRIZZLE   39  38  95 NE13      30.07F WCI  32
ROCHELLE*      DRIZZLE   40  38  94 NE17      30.05F
DE KALB*       CLOUDY    39  38  94 NE18      30.06S WCI  30
PERU*          CLOUDY    45  38  76 E12       30.01F
$$

ILZ005-006-012>014-019>023-250700-
NORTHEAST ILLINOIS

CITY           SKY/WX    TMP DP  RH WIND       PRES   REMARKS
CHICAGO-OHARE  CLOUDY    42  36  79 NE15      30.06R
6HR MIN TEMP:  42; 6HR MAX TEMP:  46; 6HR PCP: TRACE;

CHICAGO-MIDWAY CLOUDY    41  38  89 NE12G22   30.06R
6HR MIN TEMP:  41; 6HR MAX TEMP:  48; 6HR PCP:  0.48;

AURORA         MOCLDY    44  37  76 N16G22    30.05R
6HR MIN TEMP:  44; 6HR MAX TEMP:  68; 6HR PCP: TRACE;

LANSING*       CLOUDY    39  39  98 NE8       30.06S WCI  34
JOLIET*        CLOUDY    44  40  88 NE9       30.04R
WAUKEGAN       LGT RAIN  38  37  97 N13G20    30.08R FOG     WCI  30
6HR MIN TEMP:  38; 6HR MAX TEMP:  40; 6HR PCP:  0.04;

DUPAGE AIRPORT CLOUDY    42  38  85 N15       30.06R
6HR MIN TEMP:  42; 6HR MAX TEMP:  53; 6HR PCP: TRACE;

KANKAKEE*      CLOUDY    44  40  85 NE10      30.04S
WHEELING       CLOUDY    40  38  93 N13       30.08R
6HR MIN TEMP:  40; 6HR MAX TEMP:  44; 6HR PCP: TRACE;

MORRIS*        CLOUDY    43  40  88 E3        30.02S
ROMEOVILLE*    CLOUDY    41  40  96 E10       30.04R
NORTHERLY ISL    N/A     38  36  92 N20         N/A  WCI  28
$$

LMZ740>746-250700-
SOUTHERN LAKE MICHIGAN

STATION/POSITION SKY/WX   TEMP    WIND        PRES    VSBY  WAVE
                          AIR SEA DIR/SP/G                  HT/PER
                          (F)     (DEG/KT/KT) (MB)    (MI)  (FT/S)
HARRISON CRIB                     350/ 18/ 19   N/A
BURNHAM HARBOR                    360/ 15/ 19   N/A
CALUMET HARBOR                    340/ 11/ 15 1017.6R
BURNS HARBOR               38      10/  4/  7 1018.6S
MICHIGAN CITY              38     330/  3/  4   N/A
$$

ILZ025>027-034>036-040-047-049-050-058-095>099-250700-
WEST-CENTRAL ILLINOIS

CITY           SKY/WX    TMP DP  RH WIND       PRES   REMARKS
QUINCY         LGT RAIN  57  56  96 NW5       29.91F FOG
GALESBURG*     CLOUDY    55  55  99 E8        29.95F
MACOMB*        CLOUDY    55  54  97 NE15      29.95F
JACKSONVILLE*  RAIN      57  55  92 NE5       29.92S
PITTSFIELD*    LGT RAIN  57  56  97 E8        29.91F
$$

ILZ028>032-037-038-041>044-048-051>054-059>061-250700-
CENTRAL ILLINOIS

CITY           SKY/WX    TMP DP  RH WIND       PRES   REMARKS
PONTIAC        CLOUDY    49  46  88 N10       30.02R
BLOOMINGTON    CLOUDY    57  53  86 NE7       29.99F
DECATUR        LGT RAIN  63  55  75 SE13      29.96F
PEORIA         LGT RAIN  58  54  86 NE8       29.99S
6HR MIN TEMP:  58; 6HR MAX TEMP:  68; 6HR PCP:  0.02;

LACON*         CLOUDY    49  44  81 E3        30.00F
LINCOLN*       DRIZZLE   60  58  94 CALM      29.95F
SPRINGFIELD    CLOUDY    65  57  75 SE14      29.93F
6HR MIN TEMP:  63; 6HR MAX TEMP:  75; 6HR PCP:  0.01;

TAYLORVILLE    LGT RAIN  63  55  77 SE13      29.95F
$$

ILZ033-039-045-046-055>057-062-063-250700-
EAST-CENTRAL ILLINOIS

CITY           SKY/WX    TMP DP  RH WIND       PRES   REMARKS
CHAMPAIGN      LGT RAIN  63  53  70 S13       29.99F
RANTOUL*       CLOUDY    63  56  79 S10       29.99S
MATTOON        CLOUDY    63  54  72 S8        29.98F
PARIS*         MOCLDY    61  53  76 S10       30.01F
$$

ILZ079-100>102-250700-
SOUTHWEST ILLINOIS

CITY           SKY/WX    TMP DP  RH WIND       PRES   REMARKS
ALTON          RAIN      63  56  78 S13G18    29.93R
BELLEVILLE     LGT RAIN  63  59  88 SE13      29.89F
CAHOKIA*       RAIN      63  58  83 S3        29.90F
SPARTA*        CLOUDY    66  55  69 SE10      29.93F
$$

ILZ064>066-069>071-074>076-080>082-084>086-088>090-092>094-250700-
SOUTH-CENTRAL ILLINOIS

CITY           SKY/WX    TMP DP  RH WIND       PRES   REMARKS
CARBONDALE     CLOUDY    66  56  70 SE17G25   29.94F
6HR MIN TEMP:  65; 6HR MAX TEMP:  69;

CAIRO*         MOCLDY    66  56  70 SE17G23   29.95F
EFFINGHAM*     CLOUDY    64  55  73 SE9       30.00F
MARION         MOCLDY    68  55  64 SE15G22   29.97F
MT. VERNON     CLOUDY    66  55  67 SE8       29.97F
CENTRALIA*     CLOUDY    67  56  70 SE15      29.94F
SALEM*         LGT RAIN  66  55  67 SE6       29.97F
METROPOLIS*    CLOUDY    68  56  65 S9G17     29.99S
$$

ILZ067-068-072-073-078-083-087-091-250700-
SOUTHEAST ILLINOIS

CITY           SKY/WX    TMP DP  RH WIND       PRES   REMARKS
LAWRENCEVILLE  PTCLDY    62  53  72 SE14      30.03F
FLORA*         PTCLDY    63  55  75 SE9       29.99F
FAIRFIELD*     CLOUDY    64  54  70 SE7       29.99F
HARRISBURG*    CLOUDY    66  56  70 S14G21    29.98F
ROBINSON*      PTCLDY    60  52  74 SE6       30.03F
CARMI*         CLOUDY    62  55  77 SE10      30.00F
$$

ABBREVIATIONS USED IN REMARKS
   TC - TEMPERATURE IN CELSIUS
  WCI - WIND CHILL INDEX
   HX - HEAT INDEX
  VSB - VISIBILITY
$$




USA.gov is the U.S. government's official web portal to all federal, state and local government web resources and services.